Weather History for Salina, KS

Change the Weather History Date:

Saturday, December 8, 2012

  Actual Average Record
Temperature  
Mean Temperature 37 °F 34 °F  
Max Temperature 48 °F 44 °F 70 °F (1908)
Min Temperature 26 °F 23 °F -8 °F (1917)
Degree Days  
Heating Degree Days 28 31  
Month to date heating degree days 155 241  
Since 1 July heating degree days 990 1193  
Cooling Degree Days 0 0  
Month to date cooling degree days 0 0  
Year to date cooling degree days 2051 1647  
Moisture  
Dew Point 31 °F    
Average Humidity 75    
Maximum Humidity 89    
Minimum Humidity 60    
Precipitation  
Precipitation T in 0.03 in 0.48 in (1907)
Month to date precipitation 0.01 0.29  
Year to date precipitation 17.91 30.85  
Sea Level Pressure  
Sea Level Pressure 29.93 in    
Wind  
Wind Speed 6 mph (ESE)    
Max Wind Speed 14 mph    
Max Gust Speed 17 mph    
Visibility 8 miles    
Events Rain    
T = Trace of Precipitation, MM = Missing Value Source: NWS Daily Summary

Daily Weather History Graph

Daily Weather History Graph

Search for Another Location

Airport:

Trip Planner

Search our weather history database for the weather conditions in past years. The results will help you decide how hot, cold, wet, or windy it might be!

Date:

Astronomy

Dec. 08, 2012 Rise Set
Actual Time 7:36 AM CST 5:08 PM CST
Civil Twilight 7:07 AM CST 5:38 PM CST
Nautical Twilight 6:33 AM CST 6:11 PM CST
Astronomical Twilight 6:01 AM CST 6:43 PM CST
Moon 2:05 AM CST (12/8) 1:37 PM CST (12/8)
Length of Visible Light 10h 31m
Length of Day
9h 31m
Waning Crescent, 28% of the Moon is Illuminated
Dec 8
Waning Crescent
Dec 13
New
Dec 19
First Quarter
Dec 28
Full
Jan 4
Last Quarter

Hourly Weather History & Observations

Time (CST) Temp. Windchill Dew Point Humidity Pressure Visibility Wind Dir Wind Speed Gust Speed Precip Events Conditions
12:53 AM 30.9 °F 26.2 °F 27.0 °F 85% 30.01 in 8.0 mi NNW 4.6 mph - N/A   Clear
1:53 AM 30.0 °F 25.2 °F 27.0 °F 88% 30.01 in 9.0 mi NW 4.6 mph - N/A   Clear
2:53 AM 28.9 °F 21.9 °F 25.0 °F 85% 30.01 in 10.0 mi NW 6.9 mph - N/A   Clear
3:53 AM 28.0 °F 24.2 °F 23.0 °F 81% 30.00 in 10.0 mi WNW 3.5 mph - N/A   Clear
4:53 AM 27.0 °F - 21.9 °F 81% 30.00 in 10.0 mi Calm Calm - N/A   Clear
5:53 AM 27.0 °F 23.0 °F 21.9 °F 81% 30.01 in 10.0 mi NW 3.5 mph - N/A   Clear
6:53 AM 27.0 °F 21.6 °F 23.0 °F 85% 30.01 in 10.0 mi NNW 4.6 mph - N/A   Clear
7:53 AM 26.1 °F 19.4 °F 21.9 °F 84% 30.01 in 9.0 mi NNW 5.8 mph - N/A   Clear
8:53 AM 28.0 °F 24.2 °F 24.1 °F 85% 30.01 in 7.0 mi NNW 3.5 mph - N/A   Scattered Clouds
9:53 AM 32.0 °F 28.7 °F 26.1 °F 79% 30.01 in 8.0 mi NE 3.5 mph - N/A   Clear
10:53 AM 36.0 °F - 28.9 °F 76% 30.01 in 9.0 mi Calm Calm - N/A   Clear
11:53 AM 39.9 °F - 30.9 °F 70% 29.97 in 9.0 mi Calm Calm - N/A   Clear
12:53 PM 45.0 °F 39.3 °F 33.1 °F 63% 29.91 in 9.0 mi SE 11.5 mph - N/A   Clear
1:53 PM 46.9 °F - 34.0 °F 61% 29.90 in 9.0 mi ESE 10.4 mph - N/A   Clear
2:53 PM 45.0 °F 40.1 °F 33.1 °F 63% 29.86 in 10.0 mi SSE 9.2 mph - N/A   Clear
3:53 PM 46.0 °F 43.9 °F 34.0 °F 63% 29.86 in 9.0 mi ESE 4.6 mph - N/A   Clear
4:53 PM 46.4 °F 44.3 °F 33.8 °F 62% 29.82 in 10.0 mi East 4.6 mph - N/A   Overcast
5:53 PM 45.0 °F 40.6 °F 34.0 °F 65% 29.85 in 9.0 mi East 8.1 mph - N/A   Overcast
6:46 PM 44.6 °F 39.2 °F 35.6 °F 71% 29.83 in 8.0 mi SE 10.4 mph - N/A   Overcast
6:53 PM 45.0 °F 39.3 °F 36.0 °F 71% 29.86 in 8.0 mi SE 11.5 mph - N/A   Overcast
7:53 PM 43.0 °F 37.7 °F 39.0 °F 86% 29.86 in 5.0 mi SE 9.2 mph - N/A   Overcast
8:49 PM 42.8 °F 38.6 °F 39.2 °F 87% 29.84 in 2.5 mi SE 6.9 mph - N/A Rain Light Rain
8:53 PM 43.0 °F 37.7 °F 39.9 °F 89% 29.86 in 3.0 mi SE 9.2 mph - 0.00 in Rain Light Rain
9:53 PM 43.0 °F 39.5 °F 39.9 °F 89% 29.87 in 3.0 mi SE 5.8 mph - 0.00 in   Overcast
10:53 PM 43.0 °F 38.8 °F 39.9 °F 89% 29.88 in 4.0 mi SSE 6.9 mph - N/A   Overcast
11:53 PM 42.1 °F 38.4 °F 39.9 °F 92% 29.88 in 3.0 mi South 5.8 mph - N/A   Overcast